Wind_Speed
27 30 29 29 30 30 28 26 26 25 26 24 21 19 19 20 21 21 21 21 20 20 20 19 19 19 18 17 16 15 15 14 14 14 14 14 14 14 14 14 14 14 14
25 27 30 32 32 30 30 27 26 25 26 25 22 22 23 23 24 24 24 24 23 22 22 21 22 21 20 19 18 17 16 16 16 16 16 16 15 15 16 16 16 16 16
20 20 20 21 22 23 21 21 21 23 24 24 24 24 24 24 23 22 23 24 24 24 24 24 24 24 23 22 21 20 19 18 18 17 17 17 17 16 17 17 18 18 18
24 22 20 19 19 19 19 19 19 20 21 22 22 22 23 23 21 21 23 25 26 26 26 26 26 27 27 26 25 24 23 22 21 20 19 19 18 18 18 18 18 19 19
18 17 17 17 16 18 21 20 20 19 18 20 21 24 25 24 25 26 27 28 28 28 29 29 29 29 28 29 28 28 27 26 25 24 23 23 21 21 20 20 19 20 21
24 21 20 18 16 21 22 21 22 22 22 22 23 25 26 27 28 28 27 28 29 29 30 31 31 31 31 31 31 31 31 30 29 29 28 27 26 24 24 23 22 22 22
19 21 20 21 22 25 24 24 25 26 24 24 25 27 28 29 30 31 29 29 30 29 30 31 31 32 33 34 35 35 35 34 34 33 33 32 31 30 29 28 28 27 26
26 28 24 23 24 28 29 30 29 28 27 27 27 28 29 31 32 33 32 32 31 32 33 34 34 35 36 37 38 39 39 39 38 38 38 37 36 36 35 34 33 32 32
30 30 26 25 25 27 28 29 30 32 30 28 28 28 30 31 33 34 35 35 34 35 36 36 36 37 38 39 40 41 42 42 42 42 42 41 41 40 40 39 38 37 37
29 29 29 28 28 29 30 31 32 32 29 28 27 29 31 33 35 37 38 39 38 38 38 38 38 39 39 41 42 43 45 46 46 47 45 45 45 44 43 43 43 41 40
25 26 28 31 30 30 30 31 30 29 27 26 26 28 31 34 36 39 40 41 42 41 40 41 41 41 42 43 44 46 48 49 50 50 49 49 50 48 46 47 47 45 44
25 23 23 26 29 29 30 29 30 30 29 28 28 28 29 31 33 36 39 42 43 43 43 44 45 46 47 48 48 49 50 51 51 51 52 52 56 57 54 51 49 49 48
18 21 22 22 23 25 27 30 31 32 33 34 33 33 33 34 35 36 37 40 42 43 44 46 48 49 51 53 54 56 56 56 56 57 57 56 58 58 60 57 56 52 51
18 19 20 22 25 27 27 28 31 35 37 39 41 41 40 41 42 43 44 44 47 48 48 47 47 49 50 52 52 52 53 55 57 59 61 62 61 61 61 60 59 56 52
18 20 20 20 20 24 26 26 26 27 29 33 38 41 43 44 45 46 47 47 48 49 50 51 52 52 51 51 52 52 51 50 50 50 51 52 54 53 51 49 48 49 52
13 15 18 19 19 20 22 24 24 23 23 24 27 29 31 34 38 40 41 40 40 43 44 45 46 47 47 45 46 48 48 48 49 49 49 50 50 50 48 47 47 47 45
19 18 19 20 22 22 22 22 24 24 24 25 24 25 25 27 28 30 32 34 34 34 36 38 38 39 39 40 41 42 44 45 45 46 47 46 45 44 44 43 43 43 43
18 18 18 18 19 19 20 21 22 23 23 24 24 26 26 26 26 27 28 29 31 33 33 34 35 36 37 37 37 39 41 42 43 42 41 41 40 40 41 41 41 41 42
18 17 17 17 17 18 18 19 18 20 21 22 22 23 24 24 25 25 27 28 29 31 32 34 35 35 35 36 36 38 40 40 40 40 40 39 40 40 41 42 43 43 44
20 20 19 20 20 20 21 21 21 23 23 24 25 25 26 25 25 26 26 27 27 29 31 32 34 36 36 36 36 38 40 41 41 41 42 41 41 41 42 44 44 43 38
23 24 24 25 26 26 25 25 25 26 26 27 27 27 28 28 28 28 29 29 31 31 32 33 34 36 37 38 40 41 43 43 44 44 43 43 43 42 37 33 33 30 29
27 29 30 29 30 32 32 32 31 32 32 32 32 32 32 32 32 32 31 31 32 32 33 35 35 37 38 39 40 41 43 43 45 43 41 39 37 34 30 30 31 32 34
31 32 33 33 33 34 36 37 36 37 38 38 38 37 36 37 38 39 38 37 37 37 36 36 35 34 35 35 36 37 36 36 36 36 33 31 30 32 33 33 34 35 37
36 36 37 37 36 35 36 37 38 39 39 40 40 40 40 40 41 41 42 43 43 42 42 41 40 39 38 37 35 36 36 36 36 36 34 33 33 33 35 36 38 40 41
39 40 40 41 40 40 39 38 40 42 42 42 41 41 41 41 41 41 42 44 44 45 46 45 44 44 44 41 42 42 40 39 39 40 41 40 40 39 40 42 43 44 44
43 43 44 44 43 43 43 42 42 44 44 44 43 42 42 41 40 40 40 41 44 45 45 46 46 47 48 45 44 44 42 42 42 43 45 44 44 45 46 46 47 47 46
Wind_Direction
280 265 257 255 253 255 260 263 263 261 262 266 265 261 259 253 251 252 250 248 244 241 241 240 239 237 237 238 236 235 237 239 242 243 244 243 244 244 243 245 247 250 252
278 270 253 252 254 258 262 261 260 257 260 259 257 252 249 247 245 246 246 244 242 241 240 239 238 238 238 240 239 237 238 239 242 244 244 245 245 246 248 249 249 250 253
268 271 269 266 261 259 263 262 260 255 251 249 247 249 253 253 252 254 254 250 246 244 242 240 239 240 240 240 239 238 240 243 245 246 247 249 252 252 251 252 252 254 254
258 266 275 280 271 266 269 264 256 255 249 242 247 254 257 254 248 246 245 246 243 244 243 242 241 240 241 241 241 241 241 243 246 247 250 253 255 256 257 258 258 257 256
256 255 260 263 256 256 256 253 249 246 237 239 246 251 254 252 246 244 245 245 244 245 245 245 243 242 242 243 245 245 246 247 249 252 252 255 257 259 262 263 264 262 260
257 257 257 257 236 241 244 240 243 236 236 237 243 247 249 247 244 245 246 248 249 249 249 248 247 246 245 246 246 247 249 250 251 252 253 256 258 261 263 264 263 263 264
241 244 248 250 243 230 230 235 233 234 237 242 244 247 247 245 244 244 246 245 247 248 251 252 251 249 248 248 248 247 248 250 251 253 255 256 258 259 260 261 263 264 264
238 242 238 234 233 232 229 224 223 233 236 239 240 243 243 242 242 243 246 247 247 247 247 246 246 246 247 248 249 249 248 249 250 252 254 255 257 258 259 260 261 262 264
233 236 235 231 227 227 231 234 235 236 231 234 239 241 243 244 243 242 245 247 246 247 248 248 249 249 250 250 251 252 253 252 251 251 252 254 255 256 258 259 259 259 260
225 228 231 231 233 235 237 238 235 235 234 233 235 237 240 242 242 243 244 246 247 247 248 249 249 250 250 251 251 252 253 254 254 253 252 253 253 254 257 259 259 259 260
228 230 233 235 235 235 232 231 233 238 240 241 242 242 244 246 248 247 247 247 248 250 250 251 251 251 251 251 252 252 253 253 252 252 252 253 252 253 252 255 256 257 258
241 240 239 237 234 233 235 236 238 242 244 244 245 246 247 250 253 255 255 252 250 249 250 252 252 252 252 252 253 253 253 253 254 254 253 251 253 252 249 248 251 253 255
257 255 254 248 244 240 241 244 247 249 249 249 248 248 251 252 256 258 262 265 261 255 252 252 253 254 255 254 253 253 252 251 250 250 250 252 253 255 261 259 248 247 250
279 276 273 269 259 252 249 249 251 252 252 251 252 250 249 249 250 251 252 253 257 258 258 256 254 254 254 255 257 258 259 259 257 254 250 248 249 253 257 260 254 248 248
296 295 294 293 291 284 277 269 264 263 263 260 256 257 257 256 253 252 252 253 253 254 256 257 258 257 256 255 255 254 253 253 252 251 250 250 252 253 251 248 248 249 253
287 290 293 294 297 298 293 293 293 289 281 273 267 266 265 266 269 270 270 269 266 264 262 261 260 259 258 258 258 258 257 255 255 253 252 251 250 249 248 247 246 245 244
312 307 300 298 298 299 297 292 290 290 292 295 291 284 277 274 272 272 271 269 266 263 264 264 262 261 259 256 256 255 254 252 250 249 248 248 247 246 245 243 241 239 235
308 308 308 306 302 299 297 296 293 292 291 289 289 288 288 287 284 282 277 274 272 270 265 260 258 256 254 255 253 253 251 248 247 246 244 242 241 239 236 234 232 231 231
307 310 309 306 303 301 299 297 296 294 293 292 290 288 285 283 281 279 279 277 274 271 270 267 264 261 260 258 253 250 249 247 244 241 239 235 233 233 233 233 232 232 232
308 308 307 305 303 301 300 300 298 295 293 292 293 292 289 287 284 281 279 276 273 270 268 266 266 265 261 255 253 251 251 250 247 244 241 239 239 239 238 237 236 236 239
304 300 299 300 299 297 296 294 292 289 288 286 286 286 286 285 284 282 279 277 276 274 270 266 263 261 260 261 257 253 251 249 249 250 249 249 246 244 240 240 243 246 248
299 298 299 299 298 298 297 295 294 291 288 286 285 283 282 281 280 278 276 274 272 270 268 265 263 260 257 254 251 250 250 248 248 246 245 244 243 243 243 241 244 245 246
298 296 297 296 295 295 294 293 292 290 289 288 288 286 283 281 279 278 276 274 272 271 268 267 265 263 261 257 255 251 249 248 250 249 248 247 247 248 248 248 248 249 250
299 298 296 295 294 293 291 291 290 288 287 286 286 285 284 282 279 277 275 274 272 270 269 269 268 266 263 261 260 260 261 259 257 258 259 258 255 252 252 252 252 252 253
298 297 296 295 295 294 293 292 291 290 289 289 288 287 285 283 280 278 277 275 273 271 269 267 265 264 262 262 262 262 260 259 259 259 259 258 257 255 254 254 252 253 254
300 298 297 297 296 295 293 292 290 289 288 287 286 285 284 283 282 279 275 273 273 272 270 269 266 263 262 260 258 259 258 258 256 256 258 259 258 257 255 254 255 256 257
Height
3075 3073 3074 3075 3076 3077 3079 3081 3082 3083 3083 3084 3086 3087 3088 3090 3091 3093 3094 3096 3098 3100 3101 3103 3104 3106 3107 3108 3110 3111 3111 3112 3114 3115 3116 3116 3116 3117 3118 3119 3120 3121 3123
3067 3066 3065 3067 3068 3071 3072 3073 3074 3075 3076 3078 3080 3080 3081 3083 3085 3087 3088 3091 3093 3094 3096 3098 3100 3101 3103 3104 3106 3107 3108 3110 3111 3112 3113 3113 3114 3114 3115 3116 3116 3117 3118
3059 3060 3059 3060 3061 3063 3065 3066 3067 3068 3069 3071 3072 3074 3075 3077 3080 3082 3084 3086 3088 3089 3091 3093 3095 3096 3098 3100 3102 3103 3105 3106 3107 3108 3110 3110 3110 3111 3111 3112 3112 3113 3114
3051 3053 3053 3053 3054 3057 3059 3060 3061 3061 3062 3064 3066 3068 3070 3071 3074 3076 3077 3078 3081 3083 3085 3087 3089 3091 3093 3094 3096 3098 3100 3101 3103 3104 3105 3106 3107 3106 3107 3108 3108 3108 3109
3044 3044 3045 3045 3047 3051 3053 3054 3054 3055 3055 3057 3058 3060 3062 3064 3067 3068 3069 3071 3074 3077 3079 3081 3083 3085 3087 3088 3089 3092 3094 3095 3097 3098 3099 3100 3101 3101 3102 3103 3103 3104 3104
3036 3037 3037 3037 3038 3042 3044 3045 3046 3047 3047 3048 3050 3052 3054 3056 3058 3060 3063 3065 3067 3070 3072 3074 3076 3078 3080 3082 3083 3084 3086 3088 3089 3091 3092 3094 3095 3097 3097 3098 3098 3098 3099
3028 3029 3031 3031 3030 3030 3033 3036 3038 3039 3040 3041 3042 3044 3045 3047 3050 3052 3055 3056 3059 3062 3065 3066 3069 3071 3072 3074 3075 3077 3078 3080 3081 3083 3085 3086 3087 3089 3090 3091 3092 3092 3092
3021 3022 3022 3023 3023 3024 3025 3025 3026 3030 3030 3032 3033 3034 3036 3038 3041 3044 3046 3048 3051 3053 3054 3056 3059 3061 3063 3064 3066 3068 3070 3071 3072 3074 3076 3077 3078 3080 3081 3083 3085 3084 3085
3013 3013 3013 3014 3016 3017 3018 3019 3020 3021 3020 3022 3024 3025 3027 3029 3032 3034 3036 3039 3041 3043 3044 3046 3049 3051 3053 3055 3057 3059 3061 3062 3063 3064 3066 3067 3069 3070 3071 3072 3074 3076 3076
3006 3006 3006 3006 3007 3008 3009 3011 3011 3012 3013 3014 3014 3015 3016 3018 3021 3023 3025 3028 3030 3031 3033 3035 3037 3039 3042 3044 3045 3047 3049 3051 3053 3054 3055 3057 3058 3059 3061 3061 3062 3064 3066
2999 2999 2999 2998 2998 3000 3001 3002 3002 3003 3003 3004 3004 3005 3006 3008 3010 3012 3014 3016 3019 3022 3023 3025 3026 3028 3029 3031 3033 3035 3037 3038 3040 3041 3043 3045 3046 3047 3048 3050 3051 3052 3054
2995 2994 2994 2992 2991 2990 2992 2993 2994 2995 2994 2994 2995 2996 2996 2997 2998 3000 3002 3005 3008 3009 3011 3012 3013 3015 3016 3017 3019 3021 3023 3025 3027 3028 3030 3031 3032 3033 3034 3036 3038 3040 3041
2989 2989 2988 2987 2986 2984 2983 2984 2986 2986 2986 2986 2986 2986 2987 2987 2987 2989 2990 2991 2993 2994 2997 2998 2999 3001 3002 3003 3004 3006 3007 3008 3010 3012 3014 3017 3018 3020 3022 3023 3023 3025 3028
2981 2980 2979 2979 2978 2977 2976 2975 2976 2976 2977 2976 2975 2976 2976 2977 2977 2977 2978 2978 2979 2980 2981 2982 2984 2985 2987 2989 2991 2992 2994 2995 2996 2997 2997 2999 3001 3004 3006 3008 3009 3010 3013
2976 2973 2970 2969 2968 2968 2967 2966 2966 2966 2966 2966 2965 2966 2965 2965 2964 2965 2965 2966 2966 2967 2967 2968 2969 2970 2972 2974 2975 2976 2977 2979 2981 2982 2983 2985 2987 2989 2990 2992 2994 2997 3000
2973 2971 2968 2966 2963 2960 2958 2956 2955 2954 2955 2954 2954 2954 2954 2954 2954 2954 2954 2954 2954 2955 2955 2955 2956 2957 2958 2959 2960 2962 2964 2966 2968 2969 2970 2971 2973 2975 2976 2978 2980 2982 2984
2969 2966 2963 2961 2959 2958 2955 2952 2950 2950 2949 2949 2946 2945 2945 2943 2942 2942 2942 2942 2942 2943 2944 2945 2945 2945 2946 2946 2946 2948 2949 2951 2954 2956 2957 2958 2960 2961 2965 2967 2968 2970 2973
2965 2960 2957 2955 2953 2952 2951 2946 2942 2942 2942 2942 2940 2938 2937 2935 2934 2934 2933 2932 2932 2934 2934 2934 2935 2935 2935 2935 2935 2936 2937 2939 2940 2943 2946 2946 2949 2951 2953 2955 2956 2959 2962
2962 2955 2952 2950 2949 2948 2946 2942 2936 2936 2935 2934 2932 2930 2929 2928 2927 2926 2926 2924 2923 2924 2925 2926 2926 2925 2926 2927 2925 2926 2927 2928 2931 2932 2935 2936 2936 2940 2941 2943 2945 2948 2949
2954 2951 2949 2946 2945 2943 2940 2935 2931 2930 2928 2926 2924 2922 2923 2920 2919 2918 2916 2915 2915 2915 2915 2915 2916 2917 2917 2918 2916 2918 2920 2920 2922 2924 2924 2926 2927 2929 2930 2930 2933 2935 2939
2948 2946 2944 2941 2938 2935 2932 2930 2926 2924 2923 2921 2920 2918 2916 2913 2911 2909 2908 2907 2906 2906 2905 2905 2905 2905 2907 2907 2907 2908 2910 2909 2912 2913 2914 2916 2917 2918 2918 2918 2921 2925 2927
2942 2939 2935 2933 2929 2926 2922 2920 2918 2916 2914 2912 2911 2909 2906 2904 2902 2900 2900 2898 2897 2896 2896 2895 2896 2895 2895 2895 2897 2898 2899 2899 2900 2901 2902 2903 2904 2905 2907 2909 2912 2915 2917
2935 2931 2927 2924 2921 2917 2913 2910 2908 2905 2902 2900 2898 2896 2894 2893 2890 2889 2888 2888 2886 2885 2885 2884 2885 2885 2884 2885 2885 2885 2886 2887 2887 2889 2891 2893 2894 2896 2897 2900 2903 2904 2905
2924 2921 2917 2914 2911 2909 2904 2900 2896 2894 2891 2888 2886 2884 2881 2879 2878 2876 2874 2873 2873 2873 2872 2872 2872 2873 2873 2873 2874 2873 2874 2875 2875 2876 2878 2880 2883 2884 2887 2889 2892 2894 2896
2914 2910 2905 2902 2899 2895 2892 2888 2884 2880 2877 2875 2872 2870 2867 2865 2864 2862 2861 2859 2858 2858 2857 2858 2858 2858 2858 2860 2860 2861 2862 2863 2865 2866 2866 2868 2871 2873 2875 2877 2880 2881 2882
2902 2897 2893 2888 2885 2881 2878 2875 2870 2866 2863 2861 2859 2856 2854 2852 2850 2848 2847 2846 2843 2843 2842 2842 2842 2843 2843 2846 2847 2848 2850 2851 2852 2852 2853 2855 2857 2859 2861 2863 2865 2865 2867